Najran, Saudi Arabia

4:20 AM +03 on October 24, 2017 (GMT +0300)
Nejran

Weather History for OENG - October, 2012

Change the Weather History Date:

Thursday, October 4, 2012

  Actual Average Record
Temperature  
Mean Temperature 78 °F -  
Max Temperature 95 °F 86 °F 96 °F (2006)
Min Temperature 60 °F 58 °F 60 °F (2005)
Cooling Degree Days 12    
Growing Degree Days 28 (Base 50)    
Moisture  
Dew Point 29 °F    
Average Humidity 15    
Maximum Humidity 24    
Minimum Humidity 5    
Precipitation  
Precipitation 0.00 in - - ()
Sea Level Pressure  
Sea Level Pressure 30.03 in    
Wind  
Wind Speed 2 mph ()    
Max Wind Speed 8 mph    
Max Gust Speed -    
Visibility 6.0 miles    
Events      
Averages and records for this station are not official NWS values.
T = Trace of Precipitation, MM = Missing Value Source: Averaged Metar Reports

Daily Weather History Graph

Daily Weather History Graph

Search for Another Location

Airport or City:

Trip Planner

Search our weather history database for the weather conditions in past years. The results will help you decide how hot, cold, wet, or windy it might be!

Date:

Astronomy

Oct. 04, 2012 Rise Set
Actual Time 5:53 AM +03 5:48 PM +03
Civil Twilight 5:31 AM +03 6:10 PM +03
Nautical Twilight 5:06 AM +03 6:35 PM +03
Astronomical Twilight 4:41 AM +03 7:00 PM +03
Moon 8:44 PM +03 (10/4) 9:14 AM +03 (10/4)
Length of Visible Light 12h 38m
Length of Day
11h 55m
Waning Gibbous, 84% of the Moon is Illuminated
Oct 4
Waning Gibbous
Oct 8
Last Quarter
Oct 15
New
Oct 22
First Quarter
Oct 29
Full

Hourly Weather History & Observations

Time (+03) Temp. Dew Point Humidity Pressure Visibility Wind Dir Wind Speed Gust Speed Precip Events Conditions
12:00 AM 72 °F 30 °F 12%  in 6 mi Calm Calm - -  
12:00 AM 71.6 °F 30.2 °F 22% 30.06 in - Calm Calm - N/A   Clear
1:00 AM 71.6 °F 28.4 °F 20% 30.04 in - Calm Calm - N/A   Clear
2:00 AM 71.6 °F 28.4 °F 20% 30.04 in - Calm Calm - N/A   Clear
3:00 AM 68 °F 27 °F 11%  in 6 mi Calm Calm - -  
3:00 AM 68.0 °F 26.6 °F 21% 30.04 in - Calm Calm - N/A   Clear
4:00 AM 66.2 °F 26.6 °F 23% 30.04 in - WSW 4.6 mph - N/A   Clear
5:00 AM 64.4 °F 26.6 °F 24% 30.04 in - SW 4.6 mph - N/A   Clear
6:00 AM 65 °F 27 °F 13%  in 6 mi WSW 4.6 mph - -  
6:00 AM 64.4 °F 26.6 °F 24% 30.06 in - WSW 4.6 mph - N/A   Clear
7:00 AM 66.2 °F 28.4 °F 24% 30.06 in - Calm Calm - N/A   Clear
8:00 AM 77.0 °F 30.2 °F 18% 30.09 in - Calm Calm - N/A   Clear
9:00 AM 84 °F 32 °F 8%  in 6 mi Calm Calm - -  
9:00 AM 84.2 °F 32.0 °F 15% 30.09 in - Calm Calm - N/A   Clear
10:00 AM 87.8 °F 32.0 °F 14% 30.09 in - East 6.9 mph - N/A   Clear
11:00 AM 89.6 °F 30.2 °F 12% 30.06 in - Calm Calm - N/A   Clear
12:00 PM 90 °F 30 °F 5%  in 6 mi Calm Calm - -  
12:00 PM 89.6 °F 30.2 °F 12% 30.04 in - Calm Calm - N/A   Clear
1:00 PM 91.4 °F 30.2 °F 11% 30.01 in - East 4.6 mph - N/A   Clear
2:00 PM 93.2 °F 30.2 °F 11% 29.98 in - East 6.9 mph - N/A   Clear
3:00 PM 93 °F 30 °F 5%  in 6 mi East 6.9 mph - -  
3:00 PM 93.2 °F 30.2 °F 11% 29.98 in - East 6.9 mph - N/A   Clear
4:00 PM 91.4 °F 30.2 °F 11% 29.95 in - NE 8.1 mph - N/A   Clear
5:00 PM 89.6 °F 30.2 °F 12% 29.95 in - ENE 8.1 mph - N/A   Clear
6:00 PM 86 °F 30 °F 6%  in 6 mi ENE 5.8 mph - -  
6:00 PM 86.0 °F 30.2 °F 13% 29.98 in - ENE 5.8 mph - N/A   Clear
7:00 PM 84.2 °F 30.2 °F 14% 29.98 in - NE 8.1 mph - N/A   Clear
8:00 PM 82.4 °F 30.2 °F 15% 30.01 in - ENE 4.6 mph - N/A   Clear
9:00 PM 78 °F 28 °F 8%  in 6 mi ENE 4.6 mph - -  
9:00 PM 78.8 °F 28.4 °F 16% 30.04 in - ENE 4.6 mph - N/A   Clear
10:00 PM 78.8 °F 28.4 °F 16% 30.04 in - NNE 3.5 mph - N/A   Clear
11:00 PM 75.2 °F 28.4 °F 18% 30.04 in - NW 2.3 mph - N/A   Clear